This demonstration page uses our WeatherBlox Daily Observations layout. Learn more.

Left ArrowRight Arrow

39.12711, -84.51439

Hourly Observations for June 2, 2018

Temp ( °F °C ) Dew Point ( °F °C ) Humidity (%) Winds ( mph kmh ) Pressure ( in mb ) Visibility ( mi km ) Precip ( " mm )
12:00 am 00:00 Clear with Fog 67 19.4 67 19.4 100 100 N N/A 29.88 1012 1 1 N/A
12:40 am 00:40 Clear with Mist and Fog 67 19.4 67 19.4 100 100 N N/A 29.88 1012 2 2 N/A
12:53 am 00:53 Mostly Cloudy with Mist and Fog 66 18.9 66 18.9 100 100 SSE 3 6 29.88 1012 1 1 N/A
12:58 am 00:58 Mostly Cloudy with Mist and Fog 66 18.9 66 18.9 100 100 ESE 3 6 29.88 1012 2 3 N/A
1:06 am 01:06 Mostly Cloudy with Mist and Fog 66 18.9 66 18.9 100 100 N N/A 29.88 1012 5 8 N/A
1:27 am 01:27 Mostly Clear with Mist and Fog 66 18.9 66 18.9 100 100 N N/A 29.88 1012 2 2 N/A
1:29 am 01:29 Partly Cloudy with Mist and Fog 66 18.9 66 18.9 100 100 N N/A 29.88 1012 1 1 N/A
1:43 am 01:43 Mostly Clear with Mist and Fog 65 18.3 65 18.3 100 100 N N/A 29.88 1012 2 3 N/A
1:53 am 01:53 Mostly Clear with Mist and Fog 66 18.9 66 18.9 100 100 N N/A 29.86 1011 4 6 N/A
2:16 am 02:16 Clear with Mist and Fog 66 18.9 66 18.9 100 100 N N/A 29.88 1012 2 2 N/A
2:25 am 02:25 Clear with Fog 66 18.9 66 18.9 100 100 N N/A 29.88 1012 1 1 N/A
2:36 am 02:36 Clear with Mist and Fog 66 18.9 66 18.9 100 100 N N/A 29.88 1012 1 2 N/A
2:39 am 02:39 Mostly Cloudy with Mist and Fog 65 18.3 65 18.3 100 100 N N/A 29.88 1012 1 1 N/A
2:44 am 02:44 Mostly Cloudy with Fog 65 18.3 65 18.3 100 100 N N/A 29.88 1012 0 0 N/A
2:53 am 02:53 Mostly Cloudy with Fog 66 18.9 66 18.9 100 100 N N/A 29.86 1011 1 1 N/A
2:57 am 02:57 Mostly Clear with Mist and Fog 66 18.9 66 18.9 100 100 N N/A 29.88 1012 3 4 N/A
3:04 am 03:04 Mostly Clear with Mist and Fog 66 18.9 66 18.9 100 100 N N/A 29.88 1012 5 8 N/A
3:17 am 03:17 Clear with Mist and Fog 64 17.8 64 17.8 100 100 N N/A 29.88 1012 2 3 N/A
3:20 am 03:20 Mostly Cloudy with Mist and Fog 64 17.8 64 17.8 100 100 N N/A 29.88 1012 1 1 N/A
3:26 am 03:26 Mostly Cloudy with Fog 64 17.8 64 17.8 100 100 N N/A 29.88 1012 0 0 N/A
3:48 am 03:48 Mostly Cloudy with Fog 64 18 64 18 100 100 N N/A 29.88 1012 0 0 N/A
3:53 am 03:53 Mostly Cloudy with Fog 65 18.3 65 18.3 100 100 N N/A 29.86 1011 0 0 N/A
4:53 am 04:53 Mostly Cloudy with Fog 65 18.3 65 18.3 100 100 N N/A 29.87 1011 0 0 N/A
5:53 am 05:53 Mostly Cloudy with Fog 65 18.3 65 18.3 100 100 N N/A 29.88 1012 0 0 N/A
6:53 am 06:53 Mostly Cloudy with Fog 65 18.3 65 18.3 100 100 N N/A 29.89 1012 5 8 N/A
7:29 am 07:29 Mostly Cloudy with Fog 66 18.9 66 18.9 100 100 N N/A 29.91 1013 1 1 N/A
7:35 am 07:35 Mostly Cloudy with Mist and Fog 66 18.9 66 18.9 100 100 N N/A 29.91 1013 2 3 N/A
7:53 am 07:53 Partly Cloudy with Mist and Fog 67 19.4 67 19.4 100 100 N N/A 29.90 1012 3 4 N/A
8:13 am 08:13 Sunny with Mist and Fog 69 20.6 69 20.6 100 100 N N/A 29.91 1013 5 8 N/A
8:53 am 08:53 Sunny with Mist and Fog 72 22.2 70 21.1 94 94 NE 6 9 29.89 1012 6 10 N/A
9:06 am 09:06 Partly Cloudy with Mist and Fog 73 22.8 70 21.1 90 90 NE 6 9 29.91 1013 6 10 N/A
9:53 am 09:53 Mostly Cloudy 75 23.9 71 21.7 88 88 NNE 7 11 29.90 1013 7 11 N/A
10:53 am 10:53 Mostly Cloudy with Haze 76 24.4 71 21.7 85 85 N 6 9 29.90 1013 6 10 N/A
11:24 am 11:24 Partly Cloudy 76 24.4 71 21.7 85 85 ENE 5 7 29.91 1013 7 11 N/A
11:53 am 11:53 Partly Cloudy 79 26.1 72 22.2 79 79 NE 9 15 29.92 1013 8 13 N/A
12:53 pm 12:53 Partly Cloudy 82 27.8 72 22.2 72 72 N 7 11 29.91 1013 10 16 N/A
1:53 pm 13:53 Partly Cloudy 84 28.9 70 21.1 63 63 VRB 6 9 29.90 1012 10 16 N/A
2:53 pm 14:53 Partly Cloudy 85 29.4 70 21.1 61 61 WNW 5 7 29.88 1012 10 16 N/A
3:53 pm 15:53 Mostly Cloudy 85 29.4 70 21.1 61 61 N 7 11 29.86 1011 10 16 N/A
4:53 pm 16:53 Cloudy 87 30.6 70 21.1 57 57 VRB 5 7 29.84 1011 10 16 N/A
5:53 pm 17:53 Mostly Cloudy 84 28.9 71 21.7 65 65 N N/A 29.82 1010 10 16 N/A
6:53 pm 18:53 Mostly Sunny 84 28.9 69 20.6 61 61 ENE 5 7 29.79 1009 10 16 N/A
7:53 pm 19:53 Mostly Sunny 82 27.8 71 21.7 69 69 ENE 3 6 29.81 1010 10 16 N/A
8:53 pm 20:53 Mostly Sunny 75 23.9 72 22.2 90 90 N N/A 29.83 1010 10 16 N/A
9:53 pm 21:53 Clear 72 22.2 71 21.7 97 97 N N/A 29.84 1011 10 16 N/A
10:53 pm 22:53 Clear 71 21.7 69 20.6 94 94 N N/A 29.85 1011 10 16 N/A
11:53 pm 23:53 Partly Cloudy 70 21.1 69 20.6 97 97 N N/A 29.87 1012 8 13 N/A

Powered by AerisWeather